User: anonymous   Login
Location: Caltech
(34.1382°N, 118.1253°W)
Time: 08:19:47
(UTC-07:00)
Language:

Cosmos 44 Rocket - Orbit

View from above orbital plane
View from above orbital plane
View from above satellite
View from above satellite

Ground track
Ground track

The orbit data is extracted from the following two-line orbital elements,

1 00877U 64053B   15185.46846918  .00000001  00000-0  25230-4 0  9993
2 00877 065.0769 217.5616 0059780 016.7211 343.5840 14.59130752697378
Epoch (UTC): 04 July 2015 11:14:35
Eccentricity: 0.0059780
inclination: 65.0769°
perigee height: 653 km
apogee height: 738 km
right ascension of ascending node: 217.5616°
argument of perigee: 16.7211°
revolutions per day: 14.59130752
mean anomaly at epoch: 343.5840°
orbit number at epoch: 69737

The dashed part of the orbit path shows where the satellite is in the earth's shadow,  

DLR